Time,TemperatureF,DewpointF,PressureIn,WindDirection,WindDirectionDegrees,WindSpeedMPH,WindSpeedGustMPH,Humidity,HourlyPrecipIn,Conditions,Clouds,dailyrainin,SoftwareType,DateUTC
2013-02-02 00:00:00,62.2,60.8,30.22,South,182,3.5,5.8,95,0.00,CLR,,0.00,WeatherDisplay:10.37,2013-02-02 06:00:00,
2013-02-02 00:05:00,62.2,60.8,30.22,SSE,150,3.6,5.8,95,0.00,CLR,,0.00,WeatherDisplay:10.37,2013-02-02 06:05:00,
2013-02-02 00:10:00,62.1,60.7,30.22,SSE,148,3.8,6.9,95,0.00,CLR,,0.00,WeatherDisplay:10.37,2013-02-02 06:10:00,
2013-02-02 00:15:00,62.1,60.7,30.22,SSE,158,4.1,6.9,95,0.00,CLR,,0.00,WeatherDisplay:10.37,2013-02-02 06:15:00,
2013-02-02 00:20:00,62.1,60.7,30.22,SSE,161,5.1,7.0,95,0.00,CLR,,0.00,WeatherDisplay:10.37,2013-02-02 06:20:00,
2013-02-02 00:25:00,62.0,60.6,30.21,SSE,160,3.3,6.9,95,0.00,CLR,,0.00,WeatherDisplay:10.37,2013-02-02 06:25:00,
2013-02-02 00:30:00,61.9,60.5,30.21,South,188,5.1,6.9,95,0.00,CLR,,0.00,WeatherDisplay:10.37,2013-02-02 06:30:00,
2013-02-02 00:35:00,61.9,60.5,30.21,SSE,164,4.3,6.9,95,0.00,CLR,,0.00,WeatherDisplay:10.37,2013-02-02 06:35:00,
2013-02-02 00:40:00,61.8,60.4,30.21,SSE,167,4.1,6.9,95,0.00,CLR,,0.00,WeatherDisplay:10.37,2013-02-02 06:40:00,
2013-02-02 00:45:00,61.9,60.5,30.21,SSE,168,2.8,4.6,95,0.00,CLR,,0.00,WeatherDisplay:10.37,2013-02-02 06:45:00,
2013-02-02 00:50:00,61.8,60.6,30.21,SSE,167,3.6,5.3,96,0.00,CLR,,0.00,WeatherDisplay:10.37,2013-02-02 06:50:00,
2013-02-02 00:55:00,61.9,60.7,30.21,SSE,157,3.7,6.3,96,0.00,CLR,,0.00,WeatherDisplay:10.37,2013-02-02 06:55:00,
2013-02-02 01:00:00,61.9,60.7,30.21,SSE,164,3.1,4.6,96,0.00,CLR,,0.00,WeatherDisplay:10.37,2013-02-02 07:00:00,
2013-02-02 01:05:00,61.9,60.7,30.21,South,174,2.9,4.6,96,0.00,CLR,,0.00,WeatherDisplay:10.37,2013-02-02 07:05:00,
2013-02-02 01:10:00,61.9,60.7,30.21,SSE,162,3.0,4.7,96,0.00,CLR,,0.00,WeatherDisplay:10.37,2013-02-02 07:10:00,
2013-02-02 01:15:00,61.8,60.6,30.21,SSE,158,1.8,4.6,96,0.00,CLR,,0.00,WeatherDisplay:10.37,2013-02-02 07:15:00,
2013-02-02 01:20:00,61.7,60.5,30.21,SE,134,1.9,4.1,96,0.00,CLR,,0.00,WeatherDisplay:10.37,2013-02-02 07:20:00,
2013-02-02 01:25:00,61.6,60.4,30.21,SSE,164,2.9,3.6,96,0.00,CLR,,0.00,WeatherDisplay:10.37,2013-02-02 07:25:00,
2013-02-02 01:30:00,61.5,60.3,30.21,SSE,161,3.2,4.6,96,0.00,CLR,,0.00,WeatherDisplay:10.37,2013-02-02 07:30:00,
2013-02-02 01:35:00,61.5,60.6,30.21,SSE,158,1.1,4.6,97,0.00,CLR,,0.00,WeatherDisplay:10.37,2013-02-02 07:35:00,
2013-02-02 01:40:00,61.5,60.6,30.21,SE,143,2.4,4.6,97,0.00,CLR,,0.00,WeatherDisplay:10.37,2013-02-02 07:40:00,
2013-02-02 01:45:00,61.5,60.6,30.21,SE,140,2.2,3.5,97,0.00,CLR,,0.00,WeatherDisplay:10.37,2013-02-02 07:45:00,
2013-02-02 01:50:00,61.4,60.5,30.21,SE,126,2.0,3.5,97,0.00,CLR,,0.00,WeatherDisplay:10.37,2013-02-02 07:50:00,
2013-02-02 01:55:00,61.4,60.5,30.21,SSE,165,1.6,2.4,97,0.00,CLR,,0.00,WeatherDisplay:10.37,2013-02-02 07:55:00,
2013-02-02 02:00:00,61.3,60.4,30.21,SSE,157,1.5,2.7,97,0.00,CLR,,0.00,WeatherDisplay:10.37,2013-02-02 08:00:00,
2013-02-02 02:05:00,61.3,60.4,30.21,SSE,161,2.2,3.4,97,0.00,CLR,,0.00,WeatherDisplay:10.37,2013-02-02 08:05:00,
2013-02-02 02:11:00,61.4,60.5,30.20,SE,126,1.6,3.8,97,0.00,CLR,,0.00,WeatherDisplay:10.37,2013-02-02 08:11:00,
2013-02-02 02:16:00,61.4,60.8,30.20,ESE,120,1.9,2.6,98,0.00,CLR,,0.00,WeatherDisplay:10.37,2013-02-02 08:16:00,
2013-02-02 02:21:00,61.4,60.8,30.20,SE,126,3.3,4.6,98,0.00,CLR,,0.00,WeatherDisplay:10.37,2013-02-02 08:21:00,
2013-02-02 02:26:00,61.5,60.9,30.20,SE,128,2.5,3.6,98,0.00,CLR,,0.00,WeatherDisplay:10.37,2013-02-02 08:26:00,
2013-02-02 02:31:00,61.5,60.9,30.20,SSE,158,2.3,3.8,98,0.00,CLR,,0.00,WeatherDisplay:10.37,2013-02-02 08:31:00,
2013-02-02 02:36:00,61.6,61.0,30.20,SSE,157,3.1,3.9,98,0.00,CLR,,0.00,WeatherDisplay:10.37,2013-02-02 08:36:00,
2013-02-02 02:41:00,61.6,61.0,30.19,South,181,3.4,5.8,98,0.00,CLR,,0.00,WeatherDisplay:10.37,2013-02-02 08:41:00,
2013-02-02 02:46:00,61.7,61.1,30.20,South,184,3.2,5.0,98,0.00,CLR,,0.00,WeatherDisplay:10.37,2013-02-02 08:46:00,
2013-02-02 02:51:00,61.7,61.1,30.19,SSE,162,2.9,4.6,98,0.00,CLR,,0.00,WeatherDisplay:10.37,2013-02-02 08:51:00,
2013-02-02 02:56:00,61.8,61.2,30.19,SE,138,3.4,4.6,98,0.00,CLR,,0.00,WeatherDisplay:10.37,2013-02-02 08:56:00,
2013-02-02 03:01:00,61.8,61.2,30.19,SSE,165,2.7,4.6,98,0.00,CLR,,0.00,WeatherDisplay:10.37,2013-02-02 09:01:00,
2013-02-02 03:06:00,61.8,61.2,30.19,South,174,2.3,4.6,98,0.00,CLR,,0.00,WeatherDisplay:10.37,2013-02-02 09:06:00,
2013-02-02 03:11:00,61.8,61.2,30.20,SSE,165,2.3,4.9,98,0.00,CLR,,0.00,WeatherDisplay:10.37,2013-02-02 09:11:00,
2013-02-02 03:16:00,61.9,61.3,30.20,SSE,151,2.5,3.9,98,0.00,CLR,,0.00,WeatherDisplay:10.37,2013-02-02 09:16:00,
2013-02-02 03:21:00,61.8,61.2,30.19,SSE,167,1.3,3.5,98,0.00,CLR,,0.00,WeatherDisplay:10.37,2013-02-02 09:21:00,
2013-02-02 03:26:00,61.9,61.3,30.20,SSW,195,0.1,3.5,98,0.00,CLR,,0.00,WeatherDisplay:10.37,2013-02-02 09:26:00,
2013-02-02 03:31:00,61.8,61.2,30.20,South,188,0.0,1.1,98,0.00,CLR,,0.00,WeatherDisplay:10.37,2013-02-02 09:31:00,
2013-02-02 03:36:00,61.8,61.2,30.20,South,188,0.0,0.0,98,0.00,CLR,,0.00,WeatherDisplay:10.37,2013-02-02 09:36:00,
2013-02-02 03:41:00,61.7,61.1,30.20,SE,130,0.8,2.3,98,0.00,CLR,,0.00,WeatherDisplay:10.37,2013-02-02 09:41:00,
2013-02-02 03:46:00,61.5,60.9,30.20,SSW,202,1.6,2.1,98,0.00,CLR,,0.00,WeatherDisplay:10.37,2013-02-02 09:46:00,
2013-02-02 03:52:00,61.4,60.8,30.20,SSW,192,2.0,2.9,98,0.00,CLR,,0.00,WeatherDisplay:10.37,2013-02-02 09:52:00,
2013-02-02 03:57:00,61.3,60.7,30.20,South,185,1.3,2.3,98,0.00,CLR,,0.00,WeatherDisplay:10.37,2013-02-02 09:57:00,
2013-02-02 04:02:00,61.1,60.5,30.20,SSW,212,1.7,2.4,98,0.00,CLR,,0.00,WeatherDisplay:10.37,2013-02-02 10:02:00,
2013-02-02 04:07:00,61.0,60.4,30.20,South,191,2.1,2.7,98,0.00,CLR,,0.00,WeatherDisplay:10.37,2013-02-02 10:07:00,
2013-02-02 04:12:00,61.0,60.4,30.19,South,184,3.0,3.7,98,0.00,CLR,,0.00,WeatherDisplay:10.37,2013-02-02 10:12:00,
2013-02-02 04:17:00,60.9,60.3,30.19,SSE,165,3.4,5.8,98,0.00,CLR,,0.00,WeatherDisplay:10.37,2013-02-02 10:17:00,
2013-02-02 04:22:00,60.9,60.6,30.19,SSW,195,2.5,3.5,99,0.00,CLR,,0.00,WeatherDisplay:10.37,2013-02-02 10:22:00,
2013-02-02 04:27:00,60.8,60.5,30.19,SSW,199,2.4,4.6,99,0.00,CLR,,0.00,WeatherDisplay:10.37,2013-02-02 10:27:00,
2013-02-02 04:32:00,60.9,60.6,30.19,South,189,3.2,4.6,99,0.00,CLR,,0.00,WeatherDisplay:10.37,2013-02-02 10:32:00,
2013-02-02 04:37:00,60.8,60.5,30.19,South,174,2.6,4.6,99,0.00,CLR,,0.00,WeatherDisplay:10.37,2013-02-02 10:37:00,
2013-02-02 04:42:00,60.8,60.5,30.19,South,188,2.5,3.5,99,0.00,CLR,,0.00,WeatherDisplay:10.37,2013-02-02 10:42:00,
2013-02-02 04:47:00,60.8,60.5,30.19,South,191,2.5,3.5,99,0.00,CLR,,0.00,WeatherDisplay:10.37,2013-02-02 10:47:00,
2013-02-02 04:52:00,60.9,60.6,30.19,South,184,3.1,4.6,99,0.00,CLR,,0.00,WeatherDisplay:10.37,2013-02-02 10:52:00,
2013-02-02 04:57:00,61.0,60.7,30.19,SSE,165,2.6,4.6,99,0.00,CLR,,0.00,WeatherDisplay:10.37,2013-02-02 10:57:00,
2013-02-02 05:02:00,60.9,60.6,30.19,SE,144,2.3,4.6,99,0.00,CLR,,0.00,WeatherDisplay:10.37,2013-02-02 11:02:00,
2013-02-02 05:07:00,60.9,60.6,30.19,SSW,192,1.6,2.3,99,0.00,CLR,,0.00,WeatherDisplay:10.37,2013-02-02 11:07:00,
2013-02-02 05:12:00,60.8,60.5,30.19,ESE,112,0.0,2.3,99,0.00,CLR,,0.00,WeatherDisplay:10.37,2013-02-02 11:12:00,
2013-02-02 05:17:00,60.6,60.3,30.19,ESE,112,0.0,2.3,99,0.00,CLR,,0.00,WeatherDisplay:10.37,2013-02-02 11:17:00,
2013-02-02 05:22:00,60.5,60.2,30.19,ESE,112,0.0,0.0,99,0.00,CLR,,0.00,WeatherDisplay:10.37,2013-02-02 11:22:00,
2013-02-02 05:27:00,60.4,60.1,30.20,ESE,112,0.0,0.0,99,0.00,CLR,,0.00,WeatherDisplay:10.37,2013-02-02 11:27:00,
2013-02-02 05:32:00,60.3,60.0,30.19,ESE,112,0.0,0.0,99,0.00,CLR,,0.00,WeatherDisplay:10.37,2013-02-02 11:32:00,
2013-02-02 05:37:00,60.3,60.0,30.20,ESE,112,0.0,0.0,99,0.00,CLR,,0.00,WeatherDisplay:10.37,2013-02-02 11:37:00,
2013-02-02 05:42:00,60.4,60.1,30.19,SSE,158,2.2,2.5,99,0.00,CLR,,0.00,WeatherDisplay:10.37,2013-02-02 11:42:00,
2013-02-02 05:47:00,60.5,60.2,30.19,SE,137,1.4,2.3,99,0.00,CLR,,0.00,WeatherDisplay:10.37,2013-02-02 11:47:00,
2013-02-02 05:52:00,60.5,60.2,30.20,SE,145,1.4,2.4,99,0.00,CLR,,0.00,WeatherDisplay:10.37,2013-02-02 11:52:00,
2013-02-02 05:57:00,60.5,60.2,30.20,SE,131,1.5,2.3,99,0.00,CLR,,0.00,WeatherDisplay:10.37,2013-02-02 11:57:00,
2013-02-02 06:02:00,60.5,60.5,30.20,ESE,119,2.0,2.9,100,0.00,CLR,,0.00,WeatherDisplay:10.37,2013-02-02 12:02:00,
2013-02-02 06:07:00,60.6,60.6,30.20,SSE,158,1.8,2.9,100,0.00,CLR,,0.00,WeatherDisplay:10.37,2013-02-02 12:07:00,
2013-02-02 06:12:00,60.7,60.7,30.20,ESE,117,1.9,3.5,100,0.00,CLR,,0.00,WeatherDisplay:10.37,2013-02-02 12:12:00,
2013-02-02 06:17:00,60.6,60.6,30.20,SSE,154,1.3,2.3,100,0.00,CLR,,0.00,WeatherDisplay:10.37,2013-02-02 12:17:00,
2013-02-02 06:22:00,60.8,60.8,30.20,SSE,154,2.4,3.5,100,0.00,CLR,,0.00,WeatherDisplay:10.37,2013-02-02 12:22:00,
2013-02-02 06:27:00,60.8,60.8,30.21,SE,131,1.8,2.7,100,0.00,CLR,,0.00,WeatherDisplay:10.37,2013-02-02 12:27:00,
2013-02-02 06:32:00,60.9,60.9,30.21,SSE,152,1.6,2.3,100,0.00,CLR,,0.00,WeatherDisplay:10.37,2013-02-02 12:32:00,
2013-02-02 06:37:00,60.8,60.8,30.21,South,171,2.9,3.5,100,0.00,CLR,,0.00,WeatherDisplay:10.37,2013-02-02 12:37:00,
2013-02-02 06:42:00,60.9,60.9,30.21,SSE,167,2.6,3.5,100,0.00,CLR,,0.00,WeatherDisplay:10.37,2013-02-02 12:42:00,
2013-02-02 06:47:00,61.0,61.0,30.21,SSE,164,2.6,4.6,100,0.00,CLR,,0.00,WeatherDisplay:10.37,2013-02-02 12:47:00,
2013-02-02 06:52:00,61.0,61.0,30.21,SE,131,2.1,3.5,100,0.00,CLR,,0.00,WeatherDisplay:10.37,2013-02-02 12:52:00,
2013-02-02 06:57:00,61.0,61.0,30.22,SE,141,1.4,2.7,100,0.00,CLR,,0.00,WeatherDisplay:10.37,2013-02-02 12:57:00,
2013-02-02 07:02:00,61.0,61.0,30.22,SSE,150,1.4,2.3,100,0.00,CLR,,0.00,WeatherDisplay:10.37,2013-02-02 13:02:00,
2013-02-02 07:07:00,61.1,61.1,30.22,SE,140,1.2,3.5,100,0.00,CLR,,0.00,WeatherDisplay:10.37,2013-02-02 13:07:00,
2013-02-02 07:12:00,61.1,61.1,30.22,SSE,168,2.0,3.1,100,0.00,CLR,,0.00,WeatherDisplay:10.37,2013-02-02 13:12:00,
2013-02-02 07:17:00,61.2,61.2,30.22,SE,128,2.0,3.5,100,0.00,CLR,,0.00,WeatherDisplay:10.37,2013-02-02 13:17:00,
2013-02-02 07:22:00,61.2,61.2,30.22,SE,143,1.3,3.5,100,0.00,CLR,,0.00,WeatherDisplay:10.37,2013-02-02 13:22:00,
2013-02-02 07:27:00,61.2,61.2,30.22,ESE,116,2.3,3.1,100,0.00,CLR,,0.00,WeatherDisplay:10.37,2013-02-02 13:27:00,
2013-02-02 07:32:00,61.2,61.2,30.22,SE,141,2.4,3.5,100,0.00,CLR,,0.00,WeatherDisplay:10.37,2013-02-02 13:32:00,
2013-02-02 07:37:00,61.2,61.2,30.23,SE,145,2.0,3.5,100,0.00,CLR,,0.00,WeatherDisplay:10.37,2013-02-02 13:37:00,
2013-02-02 07:42:00,61.2,61.2,30.23,SE,126,2.1,3.2,100,0.00,CLR,,0.00,WeatherDisplay:10.37,2013-02-02 13:42:00,
2013-02-02 07:47:00,61.3,61.3,30.23,ESE,104,2.3,3.5,100,0.00,CLR,,0.00,WeatherDisplay:10.37,2013-02-02 13:47:00,
2013-02-02 07:52:00,61.3,61.3,30.23,ESE,112,2.0,3.0,100,0.00,CLR,,0.00,WeatherDisplay:10.37,2013-02-02 13:52:00,
2013-02-02 07:57:00,61.4,61.4,30.24,East,93,2.2,2.7,100,0.00,CLR,,0.00,WeatherDisplay:10.37,2013-02-02 13:57:00,
2013-02-02 08:02:00,61.5,61.5,30.24,East,96,1.9,2.7,100,0.00,CLR,,0.00,WeatherDisplay:10.37,2013-02-02 14:02:00,
2013-02-02 08:07:00,61.5,61.5,30.24,ESE,107,2.0,2.7,100,0.00,CLR,,0.00,WeatherDisplay:10.37,2013-02-02 14:07:00,
2013-02-02 08:12:00,61.6,61.6,30.24,SE,130,2.8,4.4,100,0.00,CLR,,0.00,WeatherDisplay:10.37,2013-02-02 14:12:00,
2013-02-02 08:17:00,61.7,61.7,30.24,ESE,103,3.1,4.6,100,0.00,CLR,,0.00,WeatherDisplay:10.37,2013-02-02 14:17:00,
2013-02-02 08:22:00,61.8,61.8,30.24,SE,128,2.2,3.5,100,0.00,CLR,,0.00,WeatherDisplay:10.37,2013-02-02 14:22:00,
2013-02-02 08:27:00,61.9,61.6,30.24,East,85,3.2,4.2,99,0.00,CLR,,0.00,WeatherDisplay:10.37,2013-02-02 14:27:00,
2013-02-02 08:32:00,62.2,61.9,30.24,ESE,109,3.3,4.6,99,0.00,CLR,,0.00,WeatherDisplay:10.37,2013-02-02 14:32:00,
2013-02-02 08:37:00,62.5,62.2,30.24,SE,131,2.9,4.7,99,0.00,CLR,,0.00,WeatherDisplay:10.37,2013-02-02 14:37:00,
2013-02-02 08:42:00,63.0,62.7,30.24,SE,141,2.1,4.7,99,0.00,CLR,,0.00,WeatherDisplay:10.37,2013-02-02 14:42:00,
2013-02-02 08:47:00,63.5,63.2,30.24,SE,127,2.5,4.0,99,0.00,CLR,,0.00,WeatherDisplay:10.37,2013-02-02 14:47:00,
2013-02-02 08:52:00,64.0,63.4,30.24,ESE,109,1.8,4.6,98,0.00,CLR,,0.00,WeatherDisplay:10.37,2013-02-02 14:52:00,
2013-02-02 08:57:00,64.6,64.0,30.25,ESE,114,2.3,4.6,98,0.00,CLR,,0.00,WeatherDisplay:10.37,2013-02-02 14:57:00,
2013-02-02 09:02:00,65.1,64.2,30.25,ESE,107,2.4,4.6,97,0.00,CLR,,0.00,WeatherDisplay:10.37,2013-02-02 15:02:00,
2013-02-02 09:07:00,65.7,64.8,30.25,SSE,167,2.4,4.6,97,0.00,CLR,,0.00,WeatherDisplay:10.37,2013-02-02 15:07:00,
2013-02-02 09:12:00,66.1,64.9,30.25,SSE,167,2.3,3.5,96,0.00,CLR,,0.00,WeatherDisplay:10.37,2013-02-02 15:12:00,
2013-02-02 09:17:00,66.4,64.9,30.25,ESE,119,3.8,5.2,95,0.00,CLR,,0.00,WeatherDisplay:10.37,2013-02-02 15:17:00,
2013-02-02 09:22:00,66.7,64.9,30.25,ENE,64,3.3,5.9,94,0.00,CLR,,0.00,WeatherDisplay:10.37,2013-02-02 15:22:00,
2013-02-02 09:27:00,66.9,64.8,30.25,East,85,2.7,5.9,93,0.00,CLR,,0.00,WeatherDisplay:10.37,2013-02-02 15:27:00,
2013-02-02 09:32:00,67.2,64.8,30.25,SSE,154,2.2,3.5,92,0.00,CLR,,0.00,WeatherDisplay:10.37,2013-02-02 15:32:00,
2013-02-02 09:37:00,67.7,64.7,30.25,SE,130,3.1,4.6,90,0.00,CLR,,0.00,WeatherDisplay:10.37,2013-02-02 15:37:00,
2013-02-02 09:42:00,68.0,64.3,30.25,SE,136,3.4,4.7,88,0.00,CLR,,0.00,WeatherDisplay:10.37,2013-02-02 15:42:00,
2013-02-02 09:47:00,68.3,63.9,30.26,East,79,3.3,5.8,86,0.00,CLR,,0.00,WeatherDisplay:10.37,2013-02-02 15:47:00,
2013-02-02 09:52:00,68.6,63.6,30.26,ESE,117,3.4,4.5,84,0.00,CLR,,0.00,WeatherDisplay:10.37,2013-02-02 15:52:00,
2013-02-02 09:57:00,69.1,63.4,30.26,SSE,154,2.4,4.6,82,0.00,CLR,,0.00,WeatherDisplay:10.37,2013-02-02 15:57:00,
2013-02-02 10:02:00,69.4,63.3,30.26,South,178,3.9,5.8,81,0.00,CLR,,0.00,WeatherDisplay:10.37,2013-02-02 16:02:00,
2013-02-02 10:07:00,69.5,62.7,30.26,ESE,123,4.8,6.9,79,0.00,CLR,,0.00,WeatherDisplay:10.37,2013-02-02 16:07:00,
2013-02-02 10:12:00,69.5,62.3,30.26,South,178,3.9,6.9,78,0.00,CLR,,0.00,WeatherDisplay:10.37,2013-02-02 16:12:00,
2013-02-02 10:17:00,69.2,62.0,30.25,SSE,158,4.5,6.9,78,0.00,CLR,,0.00,WeatherDisplay:10.37,2013-02-02 16:17:00,
2013-02-02 10:22:00,69.4,62.2,30.25,SSE,150,4.4,6.9,78,0.00,CLR,,0.00,WeatherDisplay:10.37,2013-02-02 16:22:00,
2013-02-02 10:27:00,69.5,62.3,30.26,ESE,113,4.1,6.2,78,0.00,CLR,,0.00,WeatherDisplay:10.37,2013-02-02 16:27:00,
2013-02-02 10:32:00,69.7,61.8,30.26,South,184,3.7,5.8,76,0.00,CLR,,0.00,WeatherDisplay:10.37,2013-02-02 16:32:00,
2013-02-02 10:37:00,69.4,61.5,30.26,SSE,151,4.7,6.9,76,0.00,CLR,,0.00,WeatherDisplay:10.37,2013-02-02 16:37:00,
2013-02-02 10:42:00,69.3,62.1,30.26,SE,138,5.3,6.9,78,0.00,CLR,,0.00,WeatherDisplay:10.37,2013-02-02 16:42:00,
2013-02-02 10:47:00,68.9,61.8,30.26,ESE,116,4.4,7.8,78,0.00,CLR,,0.00,WeatherDisplay:10.37,2013-02-02 16:47:00,
2013-02-02 10:52:00,68.7,61.9,30.26,SSE,157,5.3,8.1,79,0.00,CLR,,0.00,WeatherDisplay:10.37,2013-02-02 16:52:00,
2013-02-02 10:57:00,68.8,62.0,30.26,SSE,161,4.8,6.9,79,0.00,CLR,,0.00,WeatherDisplay:10.37,2013-02-02 16:57:00,
2013-02-02 11:02:00,69.0,62.2,30.25,SSE,168,5.2,7.0,79,0.00,CLR,,0.00,WeatherDisplay:10.37,2013-02-02 17:02:00,
2013-02-02 11:07:00,69.3,62.1,30.25,SSE,151,5.4,8.1,78,0.00,CLR,,0.00,WeatherDisplay:10.37,2013-02-02 17:07:00,
2013-02-02 11:12:00,69.5,62.0,30.25,SSE,162,5.4,7.8,77,0.00,CLR,,0.00,WeatherDisplay:10.37,2013-02-02 17:12:00,
2013-02-02 11:17:00,69.5,61.6,30.25,SSE,152,5.3,8.1,76,0.00,CLR,,0.00,WeatherDisplay:10.37,2013-02-02 17:17:00,
2013-02-02 11:22:00,69.7,62.2,30.25,SE,137,4.9,7.3,77,0.00,CLR,,0.00,WeatherDisplay:10.37,2013-02-02 17:22:00,
2013-02-02 11:27:00,69.9,62.0,30.25,SSE,165,4.9,8.1,76,0.00,CLR,,0.00,WeatherDisplay:10.37,2013-02-02 17:27:00,
2013-02-02 11:32:00,70.2,62.3,30.25,SSE,157,6.1,9.0,76,0.00,CLR,,0.00,WeatherDisplay:10.37,2013-02-02 17:32:00,
2013-02-02 11:37:00,70.2,61.9,30.25,SSE,157,6.0,9.2,75,0.00,CLR,,0.00,WeatherDisplay:10.37,2013-02-02 17:37:00,
2013-02-02 11:42:00,70.5,61.8,30.24,South,169,6.0,8.6,74,0.00,CLR,,0.00,WeatherDisplay:10.37,2013-02-02 17:42:00,
2013-02-02 11:47:00,70.6,61.5,30.24,SE,138,5.9,10.4,73,0.00,CLR,,0.00,WeatherDisplay:10.37,2013-02-02 17:47:00,
2013-02-02 11:52:00,70.4,61.3,30.24,SSE,155,5.3,6.9,73,0.00,CLR,,0.00,WeatherDisplay:10.37,2013-02-02 17:52:00,
2013-02-02 11:57:00,70.0,61.7,30.24,SSE,160,4.6,9.2,75,0.00,CLR,,0.00,WeatherDisplay:10.37,2013-02-02 17:57:00,
2013-02-02 12:02:00,69.5,61.6,30.24,SSE,162,4.7,8.1,76,0.00,CLR,,0.00,WeatherDisplay:10.37,2013-02-02 18:02:00,
2013-02-02 12:07:00,69.4,61.9,30.23,SE,137,6.3,9.3,77,0.00,CLR,,0.00,WeatherDisplay:10.37,2013-02-02 18:07:00,
2013-02-02 12:12:00,69.4,61.5,30.23,South,172,5.0,8.1,76,0.00,CLR,,0.00,WeatherDisplay:10.37,2013-02-02 18:12:00,
2013-02-02 12:17:00,69.4,61.5,30.23,SE,137,4.6,7.7,76,0.00,CLR,,0.00,WeatherDisplay:10.37,2013-02-02 18:17:00,
2013-02-02 12:22:00,69.6,61.7,30.23,SE,145,4.9,7.9,76,0.00,CLR,,0.00,WeatherDisplay:10.37,2013-02-02 18:22:00,
2013-02-02 12:27:00,70.4,62.1,30.23,SE,137,4.7,9.2,75,0.00,CLR,,0.00,WeatherDisplay:10.37,2013-02-02 18:27:00,
2013-02-02 12:32:00,70.9,62.2,30.23,SSE,152,4.4,9.2,74,0.00,CLR,,0.00,WeatherDisplay:10.37,2013-02-02 18:32:00,
2013-02-02 12:37:00,71.9,62.4,30.23,SSE,168,4.6,6.9,72,0.00,CLR,,0.00,WeatherDisplay:10.37,2013-02-02 18:37:00,
2013-02-02 12:42:00,72.4,61.7,30.22,South,169,6.4,8.1,69,0.00,CLR,,0.00,WeatherDisplay:10.37,2013-02-02 18:42:00,
2013-02-02 12:47:00,72.6,61.8,30.22,SE,141,4.2,9.2,69,0.00,CLR,,0.00,WeatherDisplay:10.37,2013-02-02 18:47:00,
2013-02-02 12:52:00,73.1,61.9,30.22,SE,126,4.3,5.8,68,0.00,CLR,,0.00,WeatherDisplay:10.37,2013-02-02 18:52:00,
2013-02-02 12:57:00,73.3,61.3,30.22,SE,130,4.3,8.1,66,0.00,CLR,,0.00,WeatherDisplay:10.37,2013-02-02 18:57:00,
2013-02-02 13:02:00,73.5,62.3,30.22,SE,137,4.0,5.8,68,0.00,CLR,,0.00,WeatherDisplay:10.37,2013-02-02 19:02:00,
2013-02-02 13:08:00,73.9,61.4,30.22,SSE,161,4.4,8.1,65,0.00,CLR,,0.00,WeatherDisplay:10.37,2013-02-02 19:08:00,
2013-02-02 13:13:00,74.5,61.1,30.21,SSE,147,5.3,8.1,63,0.00,CLR,,0.00,WeatherDisplay:10.37,2013-02-02 19:13:00,
2013-02-02 13:18:00,75.0,61.1,30.21,SE,133,5.3,8.5,62,0.00,CLR,,0.00,WeatherDisplay:10.37,2013-02-02 19:18:00,
2013-02-02 13:23:00,75.1,60.7,30.21,SSE,160,5.6,9.2,61,0.00,CLR,,0.00,WeatherDisplay:10.37,2013-02-02 19:23:00,
2013-02-02 13:28:00,75.2,60.8,30.21,SE,140,3.8,8.3,61,0.00,CLR,,0.00,WeatherDisplay:10.37,2013-02-02 19:28:00,
2013-02-02 13:33:00,75.3,60.5,30.21,ESE,112,4.0,8.1,60,0.00,CLR,,0.00,WeatherDisplay:10.37,2013-02-02 19:33:00,
2013-02-02 13:38:00,75.5,60.6,30.20,SE,130,5.7,8.1,60,0.00,CLR,,0.00,WeatherDisplay:10.37,2013-02-02 19:38:00,
2013-02-02 13:43:00,75.8,60.9,30.20,SE,127,6.5,9.2,60,0.00,CLR,,0.00,WeatherDisplay:10.37,2013-02-02 19:43:00,
2013-02-02 13:48:00,75.4,60.5,30.20,ESE,112,5.1,9.2,60,0.00,CLR,,0.00,WeatherDisplay:10.37,2013-02-02 19:48:00,
2013-02-02 13:53:00,75.6,61.2,30.20,East,85,6.9,9.2,61,0.00,CLR,,0.00,WeatherDisplay:10.37,2013-02-02 19:53:00,
2013-02-02 13:58:00,75.8,60.9,30.20,ESE,116,4.9,6.9,60,0.00,CLR,,0.00,WeatherDisplay:10.37,2013-02-02 19:58:00,
2013-02-02 14:03:00,75.9,60.5,30.20,SE,136,4.4,9.2,59,0.00,CLR,,0.00,WeatherDisplay:10.37,2013-02-02 20:03:00,
2013-02-02 14:08:00,76.0,60.6,30.20,SE,128,6.2,9.2,59,0.00,CLR,,0.00,WeatherDisplay:10.37,2013-02-02 20:08:00,
2013-02-02 14:13:00,76.3,60.4,30.20,SE,136,5.9,9.2,58,0.00,CLR,,0.00,WeatherDisplay:10.37,2013-02-02 20:13:00,
2013-02-02 14:18:00,76.2,59.9,30.19,SSE,161,6.5,9.1,57,0.00,CLR,,0.00,WeatherDisplay:10.37,2013-02-02 20:18:00,
2013-02-02 14:23:00,75.9,60.5,30.19,SE,137,6.8,9.4,59,0.00,CLR,,0.00,WeatherDisplay:10.37,2013-02-02 20:23:00,
2013-02-02 14:28:00,76.4,60.5,30.19,SE,136,6.4,9.3,58,0.00,CLR,,0.00,WeatherDisplay:10.37,2013-02-02 20:28:00,
2013-02-02 14:33:00,76.5,60.1,30.19,East,79,5.9,9.3,57,0.00,CLR,,0.00,WeatherDisplay:10.37,2013-02-02 20:33:00,
2013-02-02 14:38:00,76.4,60.0,30.19,ESE,119,5.2,8.1,57,0.00,CLR,,0.00,WeatherDisplay:10.37,2013-02-02 20:38:00,
2013-02-02 14:43:00,76.4,60.0,30.19,ESE,119,6.0,8.2,57,0.00,CLR,,0.00,WeatherDisplay:10.37,2013-02-02 20:43:00,
2013-02-02 14:48:00,76.3,59.9,30.19,East,96,7.1,11.7,57,0.00,CLR,,0.00,WeatherDisplay:10.37,2013-02-02 20:48:00,
2013-02-02 14:53:00,75.8,60.4,30.19,SE,134,6.7,8.1,59,0.00,CLR,,0.00,WeatherDisplay:10.37,2013-02-02 20:53:00,
2013-02-02 14:58:00,75.4,59.6,30.19,SE,141,6.9,11.5,58,0.00,CLR,,0.00,WeatherDisplay:10.37,2013-02-02 20:58:00,
2013-02-02 15:03:00,75.4,60.1,30.19,SE,141,6.2,11.5,59,0.00,CLR,,0.00,WeatherDisplay:10.37,2013-02-02 21:03:00,
2013-02-02 15:08:00,75.4,60.5,30.19,ESE,121,4.8,9.2,60,0.00,CLR,,0.00,WeatherDisplay:10.37,2013-02-02 21:08:00,
2013-02-02 15:13:00,75.6,61.2,30.19,East,90,5.3,9.2,61,0.00,CLR,,0.00,WeatherDisplay:10.37,2013-02-02 21:13:00,
2013-02-02 15:18:00,75.7,61.3,30.19,SE,143,7.1,10.8,61,0.00,CLR,,0.00,WeatherDisplay:10.37,2013-02-02 21:18:00,
2013-02-02 15:23:00,75.7,60.4,30.19,ESE,104,6.4,11.5,59,0.00,CLR,,0.00,WeatherDisplay:10.37,2013-02-02 21:23:00,
2013-02-02 15:28:00,75.7,60.8,30.19,SE,124,6.7,11.5,60,0.00,CLR,,0.00,WeatherDisplay:10.37,2013-02-02 21:28:00,
2013-02-02 15:33:00,75.7,60.8,30.18,SE,126,6.4,10.9,60,0.00,CLR,,0.00,WeatherDisplay:10.37,2013-02-02 21:33:00,
2013-02-02 15:38:00,75.8,60.4,30.18,SSE,161,7.9,13.1,59,0.00,CLR,,0.00,WeatherDisplay:10.37,2013-02-02 21:38:00,
2013-02-02 15:43:00,75.8,61.4,30.17,ESE,106,6.5,11.6,61,0.00,CLR,,0.00,WeatherDisplay:10.37,2013-02-02 21:43:00,
2013-02-02 15:48:00,76.0,61.6,30.17,East,92,7.5,13.1,61,0.00,CLR,,0.00,WeatherDisplay:10.37,2013-02-02 21:48:00,
2013-02-02 15:53:00,75.8,60.9,30.17,SE,140,7.8,12.7,60,0.00,CLR,,0.00,WeatherDisplay:10.37,2013-02-02 21:53:00,
2013-02-02 15:58:00,75.4,61.0,30.17,ESE,116,5.7,10.3,61,0.00,CLR,,0.00,WeatherDisplay:10.37,2013-02-02 21:58:00,
2013-02-02 16:03:00,75.2,61.3,30.17,ESE,120,6.6,12.7,62,0.00,CLR,,0.00,WeatherDisplay:10.37,2013-02-02 22:03:00,
2013-02-02 16:08:00,74.8,61.4,30.17,ESE,117,8.1,12.2,63,0.00,CLR,,0.00,WeatherDisplay:10.37,2013-02-02 22:08:00,
2013-02-02 16:13:00,74.4,61.4,30.17,ESE,120,6.1,11.5,64,0.00,CLR,,0.00,WeatherDisplay:10.37,2013-02-02 22:13:00,
2013-02-02 16:18:00,74.2,61.7,30.17,East,79,6.5,11.5,65,0.00,CLR,,0.00,WeatherDisplay:10.37,2013-02-02 22:18:00,
2013-02-02 16:23:00,74.0,61.5,30.17,ESE,117,6.6,13.8,65,0.00,CLR,,0.00,WeatherDisplay:10.37,2013-02-02 22:23:00,
2013-02-02 16:28:00,73.8,61.7,30.17,East,95,4.5,12.7,66,0.00,CLR,,0.00,WeatherDisplay:10.37,2013-02-02 22:28:00,
2013-02-02 16:33:00,73.5,61.4,30.17,East,93,4.9,10.4,66,0.00,CLR,,0.00,WeatherDisplay:10.37,2013-02-02 22:33:00,
2013-02-02 16:38:00,73.2,61.6,30.17,SE,127,5.9,9.2,67,0.00,CLR,,0.00,WeatherDisplay:10.37,2013-02-02 22:38:00,
2013-02-02 16:43:00,72.9,61.3,30.17,East,96,4.5,9.2,67,0.00,CLR,,0.00,WeatherDisplay:10.37,2013-02-02 22:43:00,
2013-02-02 16:48:00,72.6,61.4,30.17,ESE,114,5.6,9.2,68,0.00,CLR,,0.00,WeatherDisplay:10.37,2013-02-02 22:48:00,
2013-02-02 16:53:00,72.4,61.2,30.17,East,96,6.8,11.6,68,0.00,CLR,,0.00,WeatherDisplay:10.37,2013-02-02 22:53:00,
2013-02-02 16:58:00,72.3,61.6,30.17,East,93,8.3,12.1,69,0.00,CLR,,0.00,WeatherDisplay:10.37,2013-02-02 22:58:00,
2013-02-02 17:03:00,71.9,61.2,30.17,East,89,8.9,12.2,69,0.00,CLR,,0.00,WeatherDisplay:10.37,2013-02-02 23:03:00,
2013-02-02 17:08:00,71.5,61.2,30.17,East,92,6.5,11.5,70,0.00,CLR,,0.00,WeatherDisplay:10.37,2013-02-02 23:08:00,
2013-02-02 17:13:00,71.2,60.9,30.18,East,82,5.8,8.5,70,0.00,CLR,,0.00,WeatherDisplay:10.37,2013-02-02 23:13:00,
2013-02-02 17:18:00,71.2,61.3,30.18,East,96,6.7,11.5,71,0.00,CLR,,0.00,WeatherDisplay:10.37,2013-02-02 23:18:00,
2013-02-02 17:23:00,70.9,61.0,30.18,ENE,78,9.7,12.4,71,0.00,CLR,,0.00,WeatherDisplay:10.37,2013-02-02 23:23:00,
2013-02-02 17:28:00,70.6,61.1,30.18,East,83,7.9,12.7,72,0.00,CLR,,0.00,WeatherDisplay:10.37,2013-02-02 23:28:00,
2013-02-02 17:33:00,70.3,60.8,30.18,SE,126,9.4,12.0,72,0.00,CLR,,0.00,WeatherDisplay:10.37,2013-02-02 23:33:00,
2013-02-02 17:38:00,70.2,61.1,30.18,ESE,103,7.1,12.0,73,0.00,CLR,,0.00,WeatherDisplay:10.37,2013-02-02 23:38:00,
2013-02-02 17:43:00,70.1,61.4,30.18,East,100,6.9,12.0,74,0.00,CLR,,0.00,WeatherDisplay:10.37,2013-02-02 23:43:00,
2013-02-02 17:48:00,70.0,61.3,30.18,East,93,7.3,10.4,74,0.00,CLR,,0.00,WeatherDisplay:10.37,2013-02-02 23:48:00,
2013-02-02 17:53:00,69.8,61.1,30.18,East,96,7.5,12.7,74,0.00,CLR,,0.00,WeatherDisplay:10.37,2013-02-02 23:53:00,
2013-02-02 17:58:00,69.4,61.1,30.18,ESE,102,6.4,10.4,75,0.00,CLR,,0.00,WeatherDisplay:10.37,2013-02-02 23:58:00,
2013-02-02 18:03:00,69.2,61.3,30.19,East,97,7.2,9.2,76,0.00,CLR,,0.00,WeatherDisplay:10.37,2013-02-03 00:03:00,
2013-02-02 18:08:00,68.8,61.3,30.19,ESE,107,7.5,12.7,77,0.00,CLR,,0.00,WeatherDisplay:10.37,2013-02-03 00:08:00,
2013-02-02 18:13:00,68.5,61.4,30.19,East,97,8.0,10.4,78,0.00,CLR,,0.00,WeatherDisplay:10.37,2013-02-03 00:13:00,
2013-02-02 18:18:00,68.4,61.3,30.19,SSE,148,7.2,10.4,78,0.00,CLR,,0.00,WeatherDisplay:10.37,2013-02-03 00:18:00,
2013-02-02 18:23:00,68.1,61.7,30.19,East,88,8.3,10.5,80,0.00,CLR,,0.00,WeatherDisplay:10.37,2013-02-03 00:23:00,
2013-02-02 18:28:00,67.8,61.8,30.19,East,82,4.4,5.2,81,0.00,CLR,,0.00,WeatherDisplay:10.37,2013-02-03 00:28:00,
2013-02-02 18:33:00,67.4,61.7,30.19,ENE,73,6.1,8.5,82,0.00,CLR,,0.00,WeatherDisplay:10.37,2013-02-03 00:33:00,
2013-02-02 18:38:00,67.3,62.0,30.19,ESE,114,5.5,9.2,83,0.00,CLR,,0.00,WeatherDisplay:10.37,2013-02-03 00:38:00,
2013-02-02 18:43:00,67.2,62.2,30.19,SSE,148,4.0,6.9,84,0.00,CLR,,0.00,WeatherDisplay:10.37,2013-02-03 00:43:00,
2013-02-02 18:48:00,67.0,62.3,30.19,ENE,73,5.2,8.1,85,0.00,CLR,,0.00,WeatherDisplay:10.37,2013-02-03 00:48:00,
2013-02-02 18:53:00,66.9,62.6,30.20,ESE,117,5.2,7.0,86,0.00,CLR,,0.00,WeatherDisplay:10.37,2013-02-03 00:53:00,
2013-02-02 18:58:00,66.7,62.7,30.20,East,96,6.2,9.2,87,0.00,CLR,,0.00,WeatherDisplay:10.37,2013-02-03 00:58:00,
2013-02-02 19:04:00,66.5,62.8,30.20,ESE,119,4.4,6.9,88,0.00,CLR,,0.00,WeatherDisplay:10.37,2013-02-03 01:04:00,
2013-02-02 19:09:00,66.3,63.0,30.21,ESE,109,3.8,8.1,89,0.00,CLR,,0.00,WeatherDisplay:10.37,2013-02-03 01:09:00,
2013-02-02 19:14:00,66.2,62.9,30.21,East,82,4.1,6.9,89,0.00,CLR,,0.00,WeatherDisplay:10.37,2013-02-03 01:14:00,
2013-02-02 19:19:00,66.1,63.1,30.21,East,92,4.2,6.9,90,0.00,CLR,,0.00,WeatherDisplay:10.37,2013-02-03 01:19:00,
2013-02-02 19:24:00,66.0,63.0,30.21,ENE,59,5.0,8.6,90,0.00,CLR,,0.00,WeatherDisplay:10.37,2013-02-03 01:24:00,
2013-02-02 19:29:00,65.9,63.2,30.21,East,99,4.7,7.3,91,0.00,CLR,,0.00,WeatherDisplay:10.37,2013-02-03 01:29:00,
2013-02-02 19:34:00,65.8,63.4,30.21,ENE,62,4.5,6.0,92,0.00,CLR,,0.00,WeatherDisplay:10.37,2013-02-03 01:34:00,
2013-02-02 19:39:00,65.7,63.3,30.21,East,92,4.7,8.1,92,0.00,CLR,,0.00,WeatherDisplay:10.37,2013-02-03 01:39:00,
2013-02-02 19:44:00,65.6,63.5,30.22,ESE,110,3.8,8.1,93,0.00,CLR,,0.00,WeatherDisplay:10.37,2013-02-03 01:44:00,
2013-02-02 19:49:00,65.6,63.8,30.22,East,100,5.0,8.1,94,0.00,CLR,,0.00,WeatherDisplay:10.37,2013-02-03 01:49:00,
2013-02-02 19:54:00,65.5,63.7,30.22,ESE,113,5.1,9.3,94,0.00,CLR,,0.00,WeatherDisplay:10.37,2013-02-03 01:54:00,
2013-02-02 19:59:00,65.4,63.9,30.22,ESE,110,6.4,8.6,95,0.00,CLR,,0.00,WeatherDisplay:10.37,2013-02-03 01:59:00,
2013-02-02 20:04:00,65.4,63.9,30.22,ESE,104,4.7,9.2,95,0.00,CLR,,0.00,WeatherDisplay:10.37,2013-02-03 02:04:00,
2013-02-02 20:09:00,65.4,63.9,30.22,East,93,4.4,6.9,95,0.00,CLR,,0.00,WeatherDisplay:10.37,2013-02-03 02:09:00,
2013-02-02 20:14:00,65.4,64.2,30.22,East,86,4.9,6.9,96,0.00,CLR,,0.00,WeatherDisplay:10.37,2013-02-03 02:14:00,
2013-02-02 20:19:00,65.3,64.1,30.23,ESE,114,4.5,7.4,96,0.00,CLR,,0.00,WeatherDisplay:10.37,2013-02-03 02:19:00,
2013-02-02 20:24:00,65.2,64.0,30.23,SE,130,4.7,6.9,96,0.00,CLR,,0.00,WeatherDisplay:10.37,2013-02-03 02:24:00,
2013-02-02 20:29:00,65.2,64.0,30.23,ESE,119,4.3,5.5,96,0.00,CLR,,0.00,WeatherDisplay:10.37,2013-02-03 02:29:00,
2013-02-02 20:34:00,65.1,63.9,30.23,ESE,113,3.5,5.8,96,0.00,CLR,,0.00,WeatherDisplay:10.37,2013-02-03 02:34:00,
2013-02-02 20:39:00,65.0,63.8,30.23,SE,126,4.0,5.8,96,0.00,CLR,,0.00,WeatherDisplay:10.37,2013-02-03 02:39:00,
2013-02-02 20:44:00,64.9,63.7,30.24,East,93,3.0,5.8,96,0.00,CLR,,0.00,WeatherDisplay:10.37,2013-02-03 02:44:00,
2013-02-02 20:49:00,64.9,63.7,30.24,ESE,123,4.1,6.0,96,0.00,CLR,,0.00,WeatherDisplay:10.37,2013-02-03 02:49:00,
2013-02-02 20:54:00,64.8,63.6,30.24,SE,124,3.7,4.6,96,0.00,CLR,,0.00,WeatherDisplay:10.37,2013-02-03 02:54:00,
2013-02-02 20:59:00,64.7,63.8,30.24,SE,136,2.7,5.8,97,0.00,CLR,,0.00,WeatherDisplay:10.37,2013-02-03 02:59:00,
2013-02-02 21:04:00,64.6,63.7,30.24,ESE,120,3.6,5.8,97,0.00,CLR,,0.00,WeatherDisplay:10.37,2013-02-03 03:04:00,
2013-02-02 21:09:00,64.6,63.7,30.24,SSE,148,3.5,4.7,97,0.00,CLR,,0.00,WeatherDisplay:10.37,2013-02-03 03:09:00,
2013-02-02 21:14:00,64.5,63.6,30.24,SE,145,2.9,4.7,97,0.00,CLR,,0.00,WeatherDisplay:10.37,2013-02-03 03:14:00,
2013-02-02 21:19:00,64.5,63.6,30.24,SSE,150,2.8,5.1,97,0.00,CLR,,0.00,WeatherDisplay:10.37,2013-02-03 03:19:00,
2013-02-02 21:24:00,64.4,63.8,30.24,SE,126,2.6,5.0,98,0.00,CLR,,0.00,WeatherDisplay:10.37,2013-02-03 03:24:00,
2013-02-02 21:29:00,64.4,63.8,30.24,SSE,148,2.0,4.6,98,0.00,CLR,,0.00,WeatherDisplay:10.37,2013-02-03 03:29:00,
2013-02-02 21:34:00,64.4,63.8,30.24,ESE,117,3.5,5.8,98,0.00,CLR,,0.00,WeatherDisplay:10.37,2013-02-03 03:34:00,
2013-02-02 21:39:00,64.3,63.7,30.24,SE,127,2.5,3.8,98,0.00,CLR,,0.00,WeatherDisplay:10.37,2013-02-03 03:39:00,
2013-02-02 21:44:00,64.3,63.7,30.24,ESE,114,1.6,3.5,98,0.00,CLR,,0.00,WeatherDisplay:10.37,2013-02-03 03:44:00,
2013-02-02 21:49:00,64.2,63.6,30.24,ESE,114,1.9,4.0,98,0.00,CLR,,0.00,WeatherDisplay:10.37,2013-02-03 03:49:00,
2013-02-02 21:54:00,64.2,63.6,30.24,ESE,112,2.3,3.5,98,0.00,CLR,,0.00,WeatherDisplay:10.37,2013-02-03 03:54:00,
2013-02-02 21:59:00,64.1,63.5,30.24,ESE,106,2.2,3.5,98,0.00,CLR,,0.00,WeatherDisplay:10.37,2013-02-03 03:59:00,
2013-02-02 22:04:00,64.1,63.5,30.24,East,96,1.8,2.4,98,0.00,CLR,,0.00,WeatherDisplay:10.37,2013-02-03 04:04:00,
2013-02-02 22:09:00,64.0,63.4,30.24,East,99,2.5,4.6,98,0.00,CLR,,0.00,WeatherDisplay:10.37,2013-02-03 04:09:00,
2013-02-02 22:14:00,63.9,63.3,30.25,ESE,107,3.4,4.6,98,0.00,CLR,,0.00,WeatherDisplay:10.37,2013-02-03 04:14:00,
2013-02-02 22:19:00,63.8,63.2,30.24,SE,124,2.3,3.7,98,0.00,CLR,,0.00,WeatherDisplay:10.37,2013-02-03 04:19:00,
2013-02-02 22:24:00,63.7,63.1,30.25,SE,124,1.3,3.5,98,0.00,CLR,,0.00,WeatherDisplay:10.37,2013-02-03 04:24:00,
2013-02-02 22:29:00,63.7,63.1,30.24,SSE,151,1.9,4.6,98,0.00,CLR,,0.00,WeatherDisplay:10.37,2013-02-03 04:29:00,
2013-02-02 22:34:00,63.8,63.2,30.24,SE,130,1.7,3.5,98,0.00,CLR,,0.00,WeatherDisplay:10.37,2013-02-03 04:34:00,
2013-02-02 22:39:00,63.8,63.2,30.25,SE,124,1.4,3.5,98,0.00,CLR,,0.00,WeatherDisplay:10.37,2013-02-03 04:39:00,
2013-02-02 22:44:00,63.8,63.5,30.25,ESE,114,1.5,3.5,99,0.00,CLR,,0.00,WeatherDisplay:10.37,2013-02-03 04:44:00,
2013-02-02 22:49:00,63.8,63.5,30.25,SE,136,1.8,4.6,99,0.00,CLR,,0.00,WeatherDisplay:10.37,2013-02-03 04:49:00,
2013-02-02 22:54:00,63.8,63.5,30.25,SE,128,2.0,3.5,99,0.00,CLR,,0.00,WeatherDisplay:10.37,2013-02-03 04:54:00,
2013-02-02 22:59:00,63.8,63.5,30.25,SSE,150,1.9,3.5,99,0.00,CLR,,0.00,WeatherDisplay:10.37,2013-02-03 04:59:00,
2013-02-02 23:00:00,63.8,63.5,30.25,ESE,123,1.8,3.5,99,0.00,CLR,,0.00,WeatherDisplay:10.37,2013-02-03 05:00:00,
2013-02-02 23:01:00,63.8,63.5,30.25,ESE,114,2.1,3.5,99,0.00,CLR,,0.00,WeatherDisplay:10.37,2013-02-03 05:01:00,
2013-02-02 23:06:00,63.7,63.4,30.25,ESE,110,1.4,3.5,99,0.00,CLR,,0.00,WeatherDisplay:10.37,2013-02-03 05:06:00,
2013-02-02 23:10:00,63.6,63.3,30.25,SE,130,1.2,3.5,99,0.00,CLR,,0.00,WeatherDisplay:10.37,2013-02-03 05:10:00,
2013-02-02 23:15:00,63.7,63.4,30.25,SSE,161,2.3,2.3,99,0.00,CLR,,0.00,WeatherDisplay:10.37,2013-02-03 05:15:00,
2013-02-02 23:20:00,63.7,63.4,30.25,SE,144,1.5,2.3,99,0.00,CLR,,0.00,WeatherDisplay:10.37,2013-02-03 05:20:00,
2013-02-02 23:25:00,63.7,63.7,30.25,SE,124,1.7,2.5,100,0.00,CLR,,0.00,WeatherDisplay:10.37,2013-02-03 05:25:00,
2013-02-02 23:30:00,63.6,63.6,30.25,SSE,150,1.6,2.4,100,0.00,CLR,,0.00,WeatherDisplay:10.37,2013-02-03 05:30:00,
2013-02-02 23:35:00,63.6,63.6,30.25,SSE,148,1.5,2.4,100,0.00,CLR,,0.00,WeatherDisplay:10.37,2013-02-03 05:35:00,
2013-02-02 23:40:00,63.5,63.5,30.25,SE,140,0.5,2.4,100,0.00,CLR,,0.00,WeatherDisplay:10.37,2013-02-03 05:40:00,
2013-02-02 23:45:00,63.4,63.4,30.25,ESE,103,1.7,2.3,100,0.00,CLR,,0.00,WeatherDisplay:10.37,2013-02-03 05:45:00,
2013-02-02 23:50:00,63.4,63.4,30.25,ESE,121,1.1,2.3,100,0.00,CLR,,0.00,WeatherDisplay:10.37,2013-02-03 05:50:00,
2013-02-02 23:55:00,63.5,63.5,30.25,SE,130,1.2,1.6,100,0.00,CLR,,0.00,WeatherDisplay:10.37,2013-02-03 05:55:00,